User: anonymous   Login
Location: Feydey
(46.3431°N, 7.0106°E)
Time: 08:22:04
(UTC+00:00)
Language:

STPSAT-5 - Orbit

View from above orbital plane
View from above orbital plane
View from above satellite
View from above satellite

Ground track
Ground track

The orbit data is extracted from the following two-line orbital elements,

1 43762U 18099E   22028.90177442  .00000163  00000-0  19376-4 0  9997
2 43762  97.6433 100.7609 0014722  21.3769 338.8065 14.96546818172389
Epoch (UTC): 28 January 2022 21:38:33
Eccentricity: 0.0014722
inclination: 97.6433°
perigee height: 567 km
apogee height: 588 km
right ascension of ascending node: 100.7609°
argument of perigee: 21.3769°
revolutions per day: 14.96546818
mean anomaly at epoch: 338.8065°
orbit number at epoch: 17238

The dashed part of the orbit path shows where the satellite is in the earth's shadow,  

DLR